Location: College Park
(38.9810°N, 76.9370°W)
Time: 03:56:27
(UTC-04:00)

ISS - Pass Details

Date: 11 February 2018
Orbit: 402 x 406 km, 51.6° (Epoch: 18 June)

Event Time Altitude Azimuth Distance (km) Brightness Sun altitude
Rises 17:53:11 0° 315° (NW) 2,319 0.5 -3.2°
Reaches altitude 10° 17:55:26 10° 326° (NNW) 1,458 -0.7 -3.6°
Maximum altitude 17:58:21 29° 30° (NNE) 762 -2.8 -4.1°
Drops below altitude 10° 18:01:16 10° 93° (E) 1,454 -1.6 -4.7°
Enters shadow 18:02:32 - 101° (E) 1,929 -1.0 -4.9°
